User: anonymous   Login
Location: Unspecified
(0.0000°N, 0.0000°E)
Time: 18:51:56
(UTC+00:00)
Language:

OPAL - Orbit

View from above orbital plane
View from above orbital plane
View from above satellite
View from above satellite

Ground track
Ground track

The orbit data is extracted from the following two-line orbital elements,

1 26063U 00004C   19340.84454388 -.00000027 +00000-0 +10979-4 0  9992
2 26063 100.2264 160.4048 0035854 283.6246 076.0942 14.36742298040809
Epoch (UTC): 06 December 2019 20:16:08
Eccentricity: 0.0035854
inclination: 100.2264°
perigee height: 743 km
apogee height: 795 km
right ascension of ascending node: 160.4048°
argument of perigee: 283.6246°
revolutions per day: 14.36742298
mean anomaly at epoch: 76.0942°
orbit number at epoch: 4080

The dashed part of the orbit path shows where the satellite is in the earth's shadow,  

DLR